RH
70 73 79 75 76 90 100 100 95 92 77 65 52 49 66 64 60 60 66 71 73 72 73 76 77 79 76 75 72 70 72 69 76 75 88 85 74 70 63 62 51 42 35
64 66 69 76 75 62 92 99 100 100 100 81 84 68 72 66 75 69 67 70 78 88 74 73 83 91 88 87 85 83 80 83 79 84 86 80 69 64 63 54 44 37 34
87 82 79 78 69 61 86 100 100 100 95 97 85 73 78 68 64 68 64 69 81 86 85 84 81 79 78 84 82 80 78 77 85 81 74 66 67 64 59 48 42 42 42
100 100 100 93 91 84 94 96 100 96 87 95 86 76 76 77 92 66 61 69 75 86 100 100 88 80 76 87 89 88 87 91 86 73 71 68 67 63 58 48 47 46 46
100 100 100 100 100 92 100 100 99 100 98 90 88 92 82 72 54 61 60 80 88 97 99 91 94 97 98 88 93 84 85 84 76 78 77 77 64 54 51 50 50 52 49
100 100 100 100 99 100 100 100 100 100 78 99 100 100 80 84 64 63 69 88 100 100 96 100 98 100 100 100 100 92 86 88 89 88 80 64 54 51 49 51 57 56 52
100 99 100 100 100 100 100 100 100 100 100 100 100 97 97 72 59 57 68 78 86 97 96 99 99 100 100 97 93 94 97 92 88 79 63 54 55 54 56 58 56 48 52
99 100 100 100 100 100 100 98 100 100 100 100 100 90 100 100 100 98 98 99 93 97 99 94 98 100 98 100 100 99 94 86 78 63 58 58 58 65 60 60 55 46 44
100 100 90 100 99 100 99 99 98 94 91 100 100 100 100 100 100 100 100 100 100 100 96 100 99 94 98 100 100 96 85 78 64 62 59 66 67 62 62 51 46 38 38
100 100 100 100 89 90 97 100 100 100 99 100 100 100 100 100 100 100 100 100 100 100 98 92 97 100 100 100 98 81 73 65 68 66 73 73 76 63 54 45 41 41 39
100 100 100 100 100 88 87 99 99 98 100 100 100 100 100 100 100 100 100 100 100 99 100 100 100 100 100 91 80 70 71 73 85 85 81 78 64 55 52 48 49 43 39
100 100 100 100 98 80 78 87 100 100 100 100 100 100 100 100 100 100 100 100 100 100 100 100 100 100 86 73 76 86 90 100 87 78 70 60 58 57 58 51 51 46 42
100 100 100 100 100 97 82 78 83 87 96 100 100 100 100 100 100 100 100 100 100 100 100 96 87 79 82 95 95 100 89 73 68 69 63 64 66 56 54 54 48 44 41
98 100 100 98 100 98 97 100 100 100 100 100 100 100 100 100 100 100 100 100 100 93 95 96 95 100 100 100 88 80 72 73 72 69 64 61 58 62 57 49 49 40 37
69 95 100 100 100 100 100 100 100 100 100 100 100 100 100 100 100 100 96 92 98 100 100 100 100 100 92 91 84 77 75 73 70 70 68 71 66 54 50 46 42 45 41
58 70 96 100 100 100 100 100 100 100 100 100 100 100 100 100 100 100 100 100 100 100 100 100 100 99 89 79 77 80 78 81 83 78 76 55 51 46 48 41 41 39 33
71 78 79 95 100 100 100 100 100 100 100 100 100 100 100 100 100 100 100 100 100 100 100 98 96 91 83 84 83 87 90 79 75 59 53 55 51 41 38 43 34 34 34
69 79 85 89 97 100 100 100 100 100 100 100 100 100 100 100 100 100 100 100 100 100 94 87 91 98 95 95 88 80 75 57 52 50 44 35 36 38 34 33 30 30 24
73 81 89 97 100 100 100 100 100 100 100 100 100 100 100 100 100 100 100 100 99 99 97 100 98 90 84 79 70 53 50 44 36 34 38 37 34 32 32 31 27 21 16
77 86 96 100 100 100 100 100 100 100 100 100 100 100 100 100 100 99 98 94 93 94 94 88 81 74 67 55 50 48 49 46 40 37 33 34 36 32 28 22 15 10 8
79 83 89 95 99 100 100 100 100 100 100 100 100 100 100 100 100 100 96 93 89 86 74 69 65 60 54 47 41 38 40 41 36 39 38 37 28 20 16 10 8 7 6
72 86 96 100 100 100 100 100 100 100 100 100 100 98 92 88 88 86 78 74 74 71 62 53 47 46 48 44 44 50 48 42 39 37 30 25 18 11 9 8 7 6 6
68 68 73 77 77 76 75 75 76 79 82 80 71 68 74 71 66 67 60 49 43 42 39 40 47 41 42 41 43 42 42 35 28 21 17 11 9 8 8 6 6 7 6
62 73 77 69 70 72 73 77 77 73 71 73 75 76 69 60 50 49 52 55 50 51 71 73 59 51 47 44 44 36 32 23 18 11 9 8 8 7 6 6 6 5 4
69 64 66 74 84 82 78 74 71 68 62 58 51 49 47 48 57 56 52 57 65 62 53 51 51 47 45 37 31 24 19 11 10 10 9 9 7 7 7 6 5 4 4
86 91 89 83 77 67 62 62 58 56 54 50 50 53 48 49 54 53 57 60 57 52 53 54 40 33 27 23 18 11 10 10 10 9 8 8 8 6 5 5 5 5 6
Wind_Speed
65 61 59 57 57 57 55 55 54 53 53 53 53 52 48 50 51 50 50 51 52 53 53 52 52 52 53 55 56 57 58 59 60 62 63 66 67 69 71 73 75 77 76
61 62 62 60 58 55 55 53 53 55 54 55 54 55 52 51 51 52 53 53 52 54 56 55 55 57 57 59 61 60 62 61 64 66 68 70 73 74 75 77 78 75 73
63 63 64 63 61 57 55 56 58 56 57 55 57 57 54 56 57 58 58 57 57 58 60 59 59 60 61 61 64 65 67 66 67 70 73 76 77 78 79 79 75 75 78
70 67 64 65 64 62 61 60 59 59 59 58 60 60 61 57 58 60 60 60 59 58 57 59 62 65 64 64 65 66 68 71 72 76 77 79 80 81 80 79 78 81 83
73 70 69 67 67 64 64 63 62 60 61 62 62 63 64 64 62 61 60 58 58 58 60 62 64 67 68 70 69 73 76 77 79 82 82 83 85 83 79 79 85 85 86
74 73 73 70 67 66 68 67 65 64 65 63 60 66 66 65 64 63 60 56 58 63 63 66 68 70 72 73 76 79 80 82 85 87 89 90 87 84 80 83 85 88 94
76 73 72 71 70 71 69 67 67 65 65 63 66 68 67 68 68 64 64 65 64 67 70 71 73 75 76 79 81 83 86 89 90 93 94 89 86 86 88 89 91 92 92
77 76 78 76 75 73 70 67 66 65 65 67 69 68 67 70 68 72 72 75 74 73 75 76 79 80 82 85 87 90 92 93 95 96 92 91 91 93 95 96 96 96 96
80 81 78 78 76 75 72 70 70 71 68 67 69 69 67 71 72 74 77 79 80 80 80 84 84 85 88 92 94 96 97 97 98 95 95 96 99 100 101 103 103 103 99
83 83 80 81 79 77 73 72 73 73 71 71 71 71 71 71 74 78 82 83 85 85 86 87 90 93 95 97 100 101 101 101 98 99 100 102 103 106 108 109 110 109 106
85 86 84 81 81 79 76 74 75 74 73 73 72 72 72 74 79 82 84 85 87 89 92 94 96 99 101 103 104 104 101 101 101 103 105 108 110 112 111 113 113 114 115
87 88 87 85 83 80 76 74 75 75 75 75 76 78 80 80 82 84 86 89 92 94 97 100 103 105 105 104 101 100 101 103 107 110 111 113 113 114 116 117 118 121 123
87 87 88 85 83 82 78 75 74 75 76 79 81 83 84 85 86 89 92 95 98 101 103 105 103 100 99 100 102 104 107 111 113 114 115 116 117 120 121 123 126 129 131
86 85 84 83 82 81 80 79 78 79 81 82 84 86 88 90 92 95 98 100 102 100 97 97 98 101 103 105 108 111 112 113 115 117 118 120 123 125 128 131 134 137 139
85 83 83 82 82 81 81 80 79 80 82 83 85 88 90 93 95 96 95 94 95 96 99 101 103 106 109 111 112 114 115 117 120 121 123 125 128 131 137 138 142 145 146
79 80 79 78 79 79 80 80 81 82 83 85 86 87 88 89 90 91 93 96 98 100 103 106 109 111 113 115 116 116 118 119 121 125 128 132 137 140 142 146 148 143 143
69 71 75 78 79 78 78 79 80 82 83 84 85 87 89 90 91 94 96 99 103 105 108 110 112 114 115 115 117 118 120 124 128 131 135 139 143 147 145 144 143 147 146
60 63 66 69 74 78 80 81 82 83 85 87 89 91 92 94 97 99 102 104 107 109 110 111 111 113 116 119 121 125 127 130 136 139 142 145 145 144 144 145 144 145 140
59 62 64 67 70 73 76 78 80 83 85 86 89 91 94 97 100 102 104 105 107 107 108 110 113 117 121 124 127 130 134 138 142 142 142 142 146 148 147 146 141 134 134
62 65 68 71 74 76 78 81 83 86 89 92 95 97 99 98 99 102 103 105 107 109 112 116 119 123 126 132 135 135 135 137 139 141 144 147 148 146 145 138 135 130 121
59 68 73 75 79 83 86 89 91 92 93 93 95 96 95 95 98 101 105 109 111 115 118 121 126 129 132 134 136 138 139 141 141 145 147 148 145 138 135 130 120 112 104
48 50 54 59 64 69 72 76 78 81 83 85 88 93 97 100 104 108 112 116 119 122 125 129 131 132 133 134 135 139 141 142 141 142 140 137 135 130 121 112 108 102 94
58 59 62 66 68 70 74 78 82 85 88 91 94 98 102 106 110 115 119 123 125 126 130 131 130 131 132 136 138 139 139 139 136 134 131 128 120 109 105 102 99 94 88
66 67 70 73 75 78 81 84 87 92 95 98 101 105 109 112 114 116 116 117 118 121 122 124 127 131 135 138 138 136 135 133 130 126 118 109 102 99 95 93 90 83 75
69 73 76 79 82 84 88 92 95 98 101 103 106 109 111 110 111 113 114 115 117 120 124 127 130 134 134 132 131 129 128 124 119 110 103 101 97 94 92 85 77 73 68
75 78 80 83 85 89 92 96 98 101 102 104 106 109 111 113 115 116 116 118 119 120 122 124 124 125 124 123 122 122 117 108 101 97 94 91 89 84 77 73 69 66 60
Wind_Direction
231 233 234 237 239 238 241 246 251 256 261 265 266 268 268 269 270 274 278 282 283 284 286 288 290 290 289 289 290 290 293 295 296 297 297 297 299 299 301 302 304 306 306
230 232 235 236 239 242 243 247 253 256 260 262 267 267 269 271 274 275 276 278 282 284 286 288 288 289 291 290 290 292 292 292 293 295 296 297 298 300 301 303 305 305 307
234 234 236 237 241 243 245 246 249 254 258 262 265 269 272 272 276 279 280 281 283 284 287 288 290 289 289 291 291 291 294 294 294 295 296 297 300 302 302 303 303 304 306
231 233 236 238 239 242 245 248 250 254 256 259 264 269 272 276 275 277 279 281 281 284 286 288 289 290 291 292 290 292 292 295 294 295 297 299 300 301 303 303 303 304 304
233 232 235 237 240 243 246 249 252 255 258 263 266 270 272 275 278 281 286 292 288 288 286 286 289 289 290 290 288 290 294 295 296 297 297 297 299 300 301 301 303 303 303
234 233 236 238 242 245 248 250 253 256 261 262 266 266 275 277 278 282 285 288 289 288 288 288 288 288 290 290 291 294 294 295 295 296 297 298 299 299 298 300 300 301 302
232 235 241 242 245 247 248 251 253 255 261 263 263 268 274 277 281 282 288 291 288 289 288 289 291 291 291 292 293 293 293 294 295 296 298 298 297 297 299 298 299 300 300
233 234 237 241 243 246 249 250 252 255 258 262 266 271 276 279 283 286 287 288 288 288 288 290 291 291 292 292 293 293 293 294 296 297 296 296 297 297 297 298 298 298 299
233 236 238 242 244 247 249 251 253 255 257 261 266 270 274 278 282 283 285 286 286 287 289 289 290 291 291 292 292 293 294 295 296 296 296 297 296 297 297 298 298 297 297
233 236 238 243 246 248 250 253 254 258 260 262 264 269 273 277 281 283 284 284 285 286 288 289 290 290 290 290 292 293 294 295 295 296 296 296 297 297 298 299 298 299 298
233 237 240 242 247 250 251 253 257 260 263 265 266 269 272 275 276 278 281 283 285 287 287 287 287 288 290 290 292 294 295 295 296 296 296 297 298 299 299 299 298 298 298
232 236 241 244 247 251 253 255 258 261 263 265 268 270 271 273 275 278 281 282 283 285 285 286 288 289 290 291 293 293 294 295 295 295 296 297 298 298 298 298 298 298 299
233 236 241 245 249 253 256 259 262 264 267 269 271 272 274 275 277 278 280 281 282 284 286 287 287 289 291 291 292 293 294 295 296 297 297 297 298 298 298 298 299 299 300
236 239 243 247 250 254 258 261 263 264 266 267 269 272 273 274 276 278 279 281 283 285 285 287 289 289 290 291 292 294 295 296 296 296 297 297 298 298 298 299 299 300 301
236 240 244 248 251 254 258 260 263 265 267 269 271 272 274 276 277 279 281 282 283 284 285 286 288 289 291 293 293 294 295 295 296 297 297 297 297 298 299 300 301 301 303
239 241 245 249 253 256 259 261 264 267 269 271 272 274 276 278 279 281 281 282 283 284 285 288 289 290 291 292 294 294 295 296 296 295 296 298 298 299 300 300 303 303 303
242 245 248 250 252 255 258 261 263 265 268 271 273 275 277 279 280 280 281 282 284 285 286 288 289 291 292 292 293 294 293 293 294 296 297 297 298 299 302 301 303 304 302
243 246 250 253 254 256 259 262 264 267 269 271 273 275 276 278 279 281 282 283 284 286 287 289 290 291 291 291 291 292 293 295 296 296 297 298 300 301 301 302 302 303 302
247 250 253 255 257 258 260 263 266 267 269 271 273 275 276 278 279 281 283 284 286 286 287 288 288 289 290 290 291 293 294 294 296 298 298 300 300 301 302 302 302 300 300
250 252 254 256 258 260 262 264 266 267 269 271 273 275 277 279 280 282 281 282 283 285 286 286 287 289 291 291 292 294 295 295 297 298 300 300 301 301 302 301 300 300 300
253 252 254 255 257 259 261 264 267 270 271 273 274 276 277 278 279 280 280 281 282 284 286 288 289 290 292 292 292 294 296 296 298 298 299 300 301 302 301 301 300 301 302
261 262 260 260 261 262 263 264 266 267 269 271 273 274 275 278 281 283 285 285 285 285 287 288 290 291 292 294 295 295 297 297 298 298 300 300 300 300 301 301 301 302 303
267 267 265 263 264 266 267 268 270 272 275 276 278 279 281 282 282 284 286 286 286 287 288 288 289 291 293 295 295 295 297 297 300 299 300 300 301 301 300 301 302 303 304
268 269 270 271 272 273 274 274 274 274 275 276 277 278 279 281 284 285 287 288 288 289 290 290 290 291 292 294 295 296 298 299 300 300 301 301 301 301 302 303 304 304 304
270 270 271 272 273 273 273 273 274 275 276 278 278 280 282 283 284 285 287 288 289 289 289 290 290 291 292 294 297 299 299 300 300 302 301 302 302 304 304 304 304 303 303
273 272 271 272 272 273 274 275 276 277 278 279 280 280 281 282 284 287 289 289 290 290 290 290 291 293 295 297 297 298 299 301 300 301 301 302 303 302 303 304 304 303 303